星链-31102 (STARLINK-31102 )

导读

STARLINK-31102是美国SpaceX公司星链星座的一员,于2024年1月3日发射入轨。作为星链快速扩张阶段的低轨通信卫星,它属于V2 Mini批次,重量约790kg,支持手机直连功能,通信性能达V1.5版本的4倍。 该卫星运行在约550公里低地球轨道,配备相控阵天线与激光星间链路,采用氩霍尔推进器提升轨道机动能力,为全球用户提供低延迟高带宽宽带互联网接入服务,是目前全球最大低轨卫星星座的重要组成部分。

Basic Information
目录编号:
58715
目录名称:
STARLINK-31102
国际标识:
2024-002L
轨道中心:
EARTH
卫星名称:
星链-31102
卫星全名:
星链-31102 (STARLINK-31102 )
卫星状态:
在轨 (已飞行975 天)
发射日期:
2024-01-03 UTC
国别 :
美国 (US)
星等 :
--
Orbit Information
数据来源 国际轨道数据 AOE轨道数据
星历时间 2026-09-04T09:20:31+0800
7小时前
查看轨道信息
2026-09-01T23:00:00+0800
2天前
查看轨道信息
半长轴 6840.764km 6840.836km
偏心率 0.0000857 0.000028
轨道倾角 53.159° 53.158°
近地点辐角 90.776° 198.947°
升交点赤经 118.629° 129.993°
平近点角 269.334° 45.716°
近地点 462.04km 462.507km
远地点 463.214km 462.891km
周期 93.846分钟 93.848分钟
每日圈数 15.344259 15.344015
Detailed Information
固有亮度:
5
最大亮度:
0.3
卫星平台:
Starlink v2.0 mini
覆盖范围:
全球
运营商:
太空探索技术公司
运营商所在国:
美国
制造商(研发单位):
太空探索技术公司
制造商所在国:
美国
使用方式:
暂无
Satellite Introduction
星链(Starlink)计划是由太空探索技术公司(SpaceX)提出的一个巨型低轨卫星互联网星座项目,计划在2019年至2024年间在太空搭建由约1.2万颗卫星组成的“星链”网络,其中1584颗将部署在地球上空550千米处的近地轨道,并从2020年开始工作。该卫星仍在工作。
2D Orbit Map
3D Orbit Map
Orbit Altitude Analysis Chart
Orbit Inclination Analysis Chart
Orbit Comprehensive Analysis Chart
View Comprehensive Chart
Conjunction Data List
Event ID Objects TCA Miss Dist (km) Collision Risk Probability Collision Risk Index (CRI) Action
CDM_260905-170704-004205-871521
2026-09-05T
17:07:59+0000
1.937 km
极远距离
3.103966E-6 低风险 0.45
CDM_260904-074605-871505-892122
NEXSAT-1 (58921)
2026-09-04T
07:46:26+0000
2.125 km
极远距离
2.434557E-6 低风险 0.43